Location: Hastringsfeld
(50.9620°N, 10.4787°E)
Time: 04:08:49
(UTC+00:00)

Okean 3 Rocket - Pass Details

Date: 26 September 2023
Orbit: 612 x 643 km, 82.5° (Epoch: 29 November)

Event Time Altitude Azimuth Distance (km) Brightness Sun altitude
Rises 03:44:26 0° 343° (NNW) 2,953 7.0 -14.1°
Reaches altitude 10° 03:46:48 10° 336° (NNW) 2,035 6.1 -13.8°
Maximum altitude 03:50:57 38° 269° (W) 976 4.1 -13.1°
Drops below altitude 10° 03:55:03 10° 201° (SSW) 2,001 5.8 -12.5°
Sets 03:57:23 0° 194° (SSW) 2,898 6.7 -12.2°
